Weather reports worldwide

Advertisment
Sheffield, United Kingdom (99107): temperature & dewpoint: 26.10.2020 00:00:00 - 01.11.2020 00:00:00 (GMT)Sheffield, United Kingdom (99107): sunshine duration: 26.10.2020 00:00:00 - 01.11.2020 00:00:00 (GMT)Sheffield, United Kingdom (99107): precipitation: 26.10.2020 00:00:00 - 01.11.2020 00:00:00 (GMT)
Date & Time tt [°C] td [°C] sd [min] rr [mm]
01.11.2020 00:00:00 9,1 5,0 - 0,0
31.10.2020 23:00:00 9,3 4,7 0 0,0
31.10.2020 22:00:00 9,1 5,2 0 0,0
31.10.2020 21:00:00 9,3 5,3 0 0,0
31.10.2020 20:00:00 9,7 4,9 0 0,0
31.10.2020 19:00:00 9,9 5,2 0 0,0
31.10.2020 18:00:00 9,9 5,6 0 0,0
31.10.2020 17:00:00 10,1 5,8 0 0,0
31.10.2020 16:00:00 11,1 6,6 24 0,0
31.10.2020 15:00:00 12,0 6,8 42 0,0
31.10.2020 14:00:00 13,1 7,3 30 0,6
31.10.2020 13:00:00 13,8 12,5 0 0,6
31.10.2020 12:00:00 13,4 12,1 0 0,0
31.10.2020 11:00:00 13,2 12,1 0 1,4
31.10.2020 10:00:00 13,0 11,6 0 0,0
31.10.2020 09:00:00 12,9 11,6 0 0,2
31.10.2020 08:00:00 13,2 11,4 0 0,0
31.10.2020 07:00:00 13,3 11,2 0 0,0
31.10.2020 06:00:00 13,3 11,8 0 0,0
31.10.2020 05:00:00 13,2 12,6 0 0,0
31.10.2020 04:00:00 13,0 12,9 0 0,2
31.10.2020 03:00:00 10,0 9,8 0 0,2
31.10.2020 02:00:00 9,3 8,8 0 1,2
31.10.2020 01:00:00 9,3 8,3 0 0,0
31.10.2020 00:00:00 9,7 8,3 - 0,2
30.10.2020 23:00:00 9,4 8,2 0 0,0
30.10.2020 22:00:00 8,8 8,0 0 0,0
30.10.2020 21:00:00 8,9 7,7 0 0,0
30.10.2020 20:00:00 9,1 8,1 0 0,0
30.10.2020 19:00:00 9,8 7,8 0 0,0
30.10.2020 18:00:00 10,7 7,8 0 0,0
30.10.2020 17:00:00 11,4 8,3 0 0,0
30.10.2020 16:00:00 12,1 9,3 0 0,0
30.10.2020 15:00:00 12,5 10,0 0 0,0
30.10.2020 14:00:00 13,3 10,0 6 0,0
30.10.2020 13:00:00 13,3 10,2 0 0,0
30.10.2020 12:00:00 13,7 11,1 0 0,2
30.10.2020 11:00:00 15,6 12,6 0 0,0
30.10.2020 10:00:00 15,6 12,3 0 0,0
30.10.2020 09:00:00 15,3 12,2 0 0,0
30.10.2020 08:00:00 15,0 12,1 0 0,0
30.10.2020 07:00:00 14,8 11,9 0 0,0
30.10.2020 06:00:00 14,8 11,9 0 0,0
30.10.2020 05:00:00 14,9 11,9 0 0,0
30.10.2020 04:00:00 14,8 12,0 0 0,0
30.10.2020 03:00:00 14,8 11,9 0 0,0
30.10.2020 02:00:00 14,6 11,8 0 0,0
30.10.2020 01:00:00 14,3 11,6 0 0,0
30.10.2020 00:00:00 14,5 11,7 - 0,0
29.10.2020 23:00:00 14,0 11,7 0 0,0
29.10.2020 22:00:00 14,0 11,5 0 0,0
29.10.2020 21:00:00 14,3 11,3 0 0,0
29.10.2020 20:00:00 14,3 11,1 0 0,0
29.10.2020 19:00:00 14,2 11,1 0 0,0
29.10.2020 18:00:00 14,2 11,2 0 0,0
29.10.2020 17:00:00 13,9 11,1 0 0,0
29.10.2020 16:00:00 13,6 11,3 0 0,2
29.10.2020 15:00:00 13,7 11,3 0 0,2
29.10.2020 14:00:00 12,7 11,2 0 0,6
29.10.2020 13:00:00 11,6 10,7 0 1,0
29.10.2020 12:00:00 10,3 9,7 0 1,2
29.10.2020 11:00:00 9,5 8,7 0 1,2
29.10.2020 10:00:00 8,8 7,9 0 0,6
29.10.2020 09:00:00 7,5 6,3 0 0,2
29.10.2020 08:00:00 6,7 5,3 0 0,0
29.10.2020 07:00:00 6,4 4,3 0 0,0
29.10.2020 06:00:00 5,9 3,9 0 0,0
29.10.2020 05:00:00 6,0 3,8 0 0,0
29.10.2020 04:00:00 6,0 3,4 0 0,0
29.10.2020 03:00:00 7,4 3,8 0 0,0
29.10.2020 02:00:00 7,1 3,7 0 0,0
29.10.2020 01:00:00 7,6 4,0 0 0,0
29.10.2020 00:00:00 6,4 3,8 - 0,0
28.10.2020 23:00:00 6,9 3,7 0 0,0
28.10.2020 22:00:00 6,9 3,6 0 0,0
28.10.2020 21:00:00 7,2 3,7 0 0,0
28.10.2020 20:00:00 7,4 4,1 0 0,0
28.10.2020 19:00:00 8,2 4,5 0 0,0
28.10.2020 18:00:00 8,2 4,8 0 0,0
28.10.2020 17:00:00 8,2 4,7 0 0,0
28.10.2020 16:00:00 9,1 5,9 0 0,2
28.10.2020 15:00:00 9,9 5,3 18 0,0
28.10.2020 14:00:00 9,7 5,7 18 0,2
28.10.2020 13:00:00 8,8 6,2 0 0,8
28.10.2020 12:00:00 10,3 5,5 54 0,0
28.10.2020 11:00:00 9,5 5,4 54 0,0
28.10.2020 10:00:00 9,2 5,1 30 0,0
28.10.2020 09:00:00 7,8 5,3 6 0,2
28.10.2020 08:00:00 7,2 4,6 0 0,0
28.10.2020 07:00:00 7,0 4,2 0 0,0
28.10.2020 06:00:00 6,9 4,4 0 0,0
28.10.2020 05:00:00 6,3 4,2 0 0,0
28.10.2020 04:00:00 7,0 4,5 0 0,0
28.10.2020 03:00:00 7,2 4,6 0 0,0
28.10.2020 02:00:00 7,2 4,7 0 0,0
28.10.2020 01:00:00 6,7 4,4 0 0,0
28.10.2020 00:00:00 6,9 4,3 - 0,0
27.10.2020 23:00:00 6,0 4,0 0 0,0
27.10.2020 22:00:00 6,9 3,9 0 0,0
27.10.2020 21:00:00 7,8 4,2 0 0,0
27.10.2020 20:00:00 8,3 4,4 0 0,0
27.10.2020 19:00:00 9,0 5,9 0 0,0
27.10.2020 18:00:00 8,7 6,2 0 0,0
27.10.2020 17:00:00 8,9 6,2 0 0,0
27.10.2020 16:00:00 9,7 7,3 0 0,4
27.10.2020 15:00:00 10,8 10,4 0 0,2
27.10.2020 14:00:00 10,2 9,7 0 0,8
27.10.2020 13:00:00 9,5 9,0 0 0,8
27.10.2020 12:00:00 8,9 8,2 0 0,4
27.10.2020 11:00:00 8,6 7,7 0 0,2
27.10.2020 10:00:00 8,1 7,4 0 0,0
27.10.2020 09:00:00 7,4 6,5 0 0,2
27.10.2020 08:00:00 7,0 5,7 0 0,0
27.10.2020 07:00:00 6,7 5,2 0 0,0
27.10.2020 06:00:00 6,6 5,1 0 0,0
27.10.2020 05:00:00 6,3 4,7 0 0,0
27.10.2020 04:00:00 6,9 5,1 0 0,0
27.10.2020 03:00:00 7,3 5,2 0 0,0
27.10.2020 02:00:00 7,8 5,6 0 0,0
27.10.2020 01:00:00 8,1 6,4 0 0,2
27.10.2020 00:00:00 7,6 5,8 - 0,0
26.10.2020 23:00:00 7,9 6,2 0 0,0
26.10.2020 22:00:00 7,8 6,2 0 0,2
26.10.2020 21:00:00 8,0 6,5 0 0,4
26.10.2020 20:00:00 8,0 6,1 0 0,0
26.10.2020 19:00:00 8,2 5,4 0 0,4
26.10.2020 18:00:00 8,9 5,8 0 0,0
26.10.2020 17:00:00 8,9 6,5 0 0,2
26.10.2020 16:00:00 8,8 6,9 0 0,2
26.10.2020 15:00:00 8,1 6,0 0 1,2
26.10.2020 14:00:00 9,4 6,6 0 0,4
26.10.2020 13:00:00 9,7 7,0 0 0,0
26.10.2020 12:00:00 9,0 7,5 0 1,0
26.10.2020 11:00:00 9,0 7,6 0 1,0
26.10.2020 10:00:00 8,3 7,4 0 0,8
26.10.2020 09:00:00 7,8 6,5 6 0,2
26.10.2020 08:00:00 7,0 6,0 0 0,4
26.10.2020 07:00:00 6,6 5,1 0 0,0
26.10.2020 06:00:00 6,4 4,9 0 0,0
26.10.2020 05:00:00 6,3 4,7 0 0,0
26.10.2020 04:00:00 6,5 4,7 0 0,0
26.10.2020 03:00:00 6,6 4,8 0 0,0
26.10.2020 02:00:00 6,4 5,1 0 0,0
26.10.2020 01:00:00 6,2 5,0 0 0,0
26.10.2020 00:00:00 6,5 5,2 - 0,0

tt = temperature
td = dewpoint
sd = sunshine duration
rr = precipitation

Next stations